Starlink 31818

operational
NORAD ID: 59741 Int'l Des: 2024-090 Owner: SPXS Country: US Constellation: starlink
LEOCIRCULAR

About Starlink 31818

Description loading...

Live Position

Loading 3D Globe...

Upcoming Passes

Altitude History

Altitude vs Time

uPlot chart will show altitude changes over time

Two-Line Element Set

1 59741U 24090M 25303.74083745 -.00002531 00000-0 -82487-4 0 9998
2 59741 43.0006 197.5909 0001154 249.8603 110.2125 15.27574036 83568
Epoch: Oct 30, 2025 • Age: 25 hours

Current Status

Altitude 482.8 km
Velocity 7.63 km/s
Sub-Earth Point 2.32°N, 129.72°W
Launch Date May 13, 2024
Age 1.4 years
Type internet

Technical Details

Classification Payload
Mass 730.00 kg
Dry Mass 700.00 kg
Total Mass 730.00 kg
Length 0.30 m
Diameter 4.10 m
Span 29.00 m
Shape Box + pan
Manufacturer SPXS
Bus Type Starlink V2M
Phase Status In Orbit
Owner/State SPXS/US

Large Constellations

Loading constellations...